Soldotna, AK

5:22 AM AKDT on October 17, 2017 (GMT -0800)
Soldotna

Weather History for PASX - June, 2014

Change the Weather History Date:

Thursday, June 12, 2014

  Actual Average Record
Temperature  
Mean Temperature 45 °F -  
Max Temperature 55 °F 58 °F 77 °F (1959)
Min Temperature 35 °F 41 °F 30 °F (1975)
Degree Days  
Heating Degree Days 20    
Moisture  
Dew Point 39 °F    
Average Humidity 76    
Maximum Humidity 93    
Minimum Humidity 51    
Precipitation  
Precipitation 0.01 in - - ()
Sea Level Pressure  
Sea Level Pressure 29.98 in    
Wind  
Wind Speed 3 mph (ENE)    
Max Wind Speed 12 mph    
Max Gust Speed -    
Visibility 10 miles    
Events      
Averages and records for this station are not official NWS values.
T = Trace of Precipitation, MM = Missing Value Source: NWS Daily Summary

Daily Weather History Graph

Daily Weather History Graph

Search for Another Location

Airport or City:

Trip Planner

Search our weather history database for the weather conditions in past years. The results will help you decide how hot, cold, wet, or windy it might be!

Date:

Astronomy

Jun. 12, 2014 Rise Set
Actual Time 4:36 AM AKDT 11:32 PM AKDT
Civil Twilight 2:42 AM AKDT 1:28 AM AKDT
Nautical Twilight Sun does not rise Sun does not rise
Astronomical Twilight Sun does not rise Sun does not rise
Moon 10:43 PM AKDT (6/12) 4:59 AM AKDT (6/12)
Length of Visible Light 22h 46m
Length of Day
18h 56m
Full, 100% of the Moon is Illuminated
Jun 12
Full
Jun 12
Full
Jun 19
Last Quarter
Jun 27
New
Jul 5
First Quarter

Hourly Weather History & Observations

Time (AKDT) Temp. Windchill Dew Point Humidity Pressure Visibility Wind Dir Wind Speed Gust Speed Precip Events Conditions
12:16 AM 42.8 °F - 35.6 °F 76% 30.09 in 10.0 mi Calm Calm - N/A   Clear
12:36 AM 41.0 °F - 35.6 °F 81% 30.10 in 10.0 mi Calm Calm - N/A   Clear
12:56 AM 39.2 °F - 35.6 °F 87% 30.09 in 10.0 mi Calm Calm - N/A   Clear
1:16 AM 39.2 °F - 33.8 °F 81% 30.09 in 10.0 mi Calm Calm - N/A   Scattered Clouds
1:36 AM 39.2 °F 35.9 °F 35.6 °F 87% 30.09 in 10.0 mi WSW 4.6 mph - N/A   Scattered Clouds
1:56 AM 44.6 °F 41.4 °F 37.4 °F 76% 30.09 in 10.0 mi SW 5.8 mph - N/A   Clear
2:16 AM 44.6 °F 41.4 °F 37.4 °F 76% 30.09 in 10.0 mi SW 5.8 mph - N/A   Clear
2:36 AM 44.6 °F 40.7 °F 37.4 °F 76% 30.09 in 10.0 mi SW 6.9 mph - N/A   Clear
2:56 AM 44.6 °F 40.7 °F 37.4 °F 76% 30.08 in 10.0 mi SW 6.9 mph - N/A   Clear
3:16 AM 42.8 °F - 37.4 °F 81% 30.08 in 10.0 mi Calm Calm - N/A   Clear
3:36 AM 35.6 °F 30.7 °F 30.2 °F 81% 30.08 in 10.0 mi East 5.8 mph - N/A   Clear
3:56 AM 37.4 °F 32.8 °F 33.8 °F 87% 30.07 in 10.0 mi East 5.8 mph - N/A   Clear
4:16 AM 37.4 °F 33.8 °F 33.8 °F 87% 30.07 in 10.0 mi ENE 4.6 mph - N/A   Mostly Cloudy
4:36 AM 37.4 °F 34.9 °F 33.8 °F 87% 30.07 in 10.0 mi ENE 3.5 mph - N/A   Overcast
4:56 AM 37.4 °F 34.9 °F 32.0 °F 81% 30.07 in 10.0 mi ENE 3.5 mph - N/A   Overcast
5:16 AM 37.4 °F 33.8 °F 33.8 °F 87% 30.07 in 10.0 mi ENE 4.6 mph - N/A   Overcast
5:36 AM 37.4 °F 34.9 °F 33.8 °F 87% 30.07 in 10.0 mi East 3.5 mph - N/A   Overcast
6:36 AM 39.2 °F 37.0 °F 33.8 °F 81% 30.06 in 10.0 mi East 3.5 mph - N/A   Overcast
6:56 AM 37.4 °F 34.9 °F 33.8 °F 87% 30.06 in 10.0 mi East 3.5 mph - N/A   Overcast
7:16 AM 39.2 °F 37.0 °F 33.8 °F 81% 30.06 in 10.0 mi East 3.5 mph - N/A   Overcast
7:36 AM 39.2 °F 35.9 °F 33.8 °F 81% 30.06 in 10.0 mi East 4.6 mph - N/A   Overcast
7:56 AM 39.2 °F 35.9 °F 33.8 °F 81% 30.05 in 10.0 mi East 4.6 mph - N/A   Overcast
8:16 AM 41.0 °F 38.0 °F 35.6 °F 81% 30.05 in 10.0 mi East 4.6 mph - N/A   Overcast
8:36 AM 42.8 °F 40.1 °F 37.4 °F 81% 30.05 in 10.0 mi East 4.6 mph - N/A   Overcast
8:56 AM 42.8 °F 40.1 °F 37.4 °F 81% 30.05 in 10.0 mi East 4.6 mph - N/A   Mostly Cloudy
9:16 AM 42.8 °F 41.1 °F 37.4 °F 81% 30.04 in 10.0 mi ESE 3.5 mph - N/A   Overcast
9:36 AM 44.6 °F 42.2 °F 39.2 °F 81% 30.04 in 10.0 mi East 4.6 mph - N/A   Overcast
9:56 AM 44.6 °F 42.2 °F 39.2 °F 81% 30.04 in 10.0 mi East 4.6 mph - N/A   Overcast
10:16 AM 46.4 °F 45.2 °F 39.2 °F 76% 30.03 in 10.0 mi East 3.5 mph - N/A   Overcast
10:36 AM 46.4 °F 44.3 °F 41.0 °F 81% 30.03 in 10.0 mi East 4.6 mph - N/A   Overcast
10:56 AM 48.2 °F - 42.8 °F 82% 30.03 in 10.0 mi East 3.5 mph - N/A   Overcast
11:16 AM 48.2 °F - 42.8 °F 82% 30.02 in 10.0 mi East 3.5 mph - N/A   Overcast
11:36 AM 48.2 °F - 42.8 °F 82% 30.02 in 10.0 mi Calm Calm - N/A   Overcast
11:56 AM 48.2 °F - 41.0 °F 76% 30.01 in 10.0 mi Calm Calm - N/A   Overcast
12:16 PM 50.0 °F - 42.8 °F 76% 30.01 in 10.0 mi Calm Calm - N/A   Overcast
12:36 PM 51.8 °F - 41.0 °F 67% 30.00 in 10.0 mi Calm Calm - N/A   Overcast
12:56 PM 51.8 °F - 39.2 °F 62% 30.00 in 10.0 mi Calm Calm - N/A   Overcast
1:16 PM 51.8 °F - 39.2 °F 62% 29.99 in 10.0 mi Calm Calm - N/A   Overcast
1:36 PM 51.8 °F - 37.4 °F 58% 29.99 in 10.0 mi SE 3.5 mph - N/A   Overcast
1:56 PM 53.6 °F - 37.4 °F 54% 29.98 in 10.0 mi Calm Calm - N/A   Overcast
2:16 PM 51.8 °F - 39.2 °F 62% 29.97 in 10.0 mi NNE 3.5 mph - N/A   Overcast
2:36 PM 53.6 °F - 39.2 °F 58% 29.96 in 10.0 mi Calm Calm - N/A   Overcast
2:56 PM 53.6 °F - 39.2 °F 58% 29.95 in 10.0 mi Calm Calm - N/A   Overcast
3:16 PM 53.6 °F - 37.4 °F 54% 29.95 in 10.0 mi SE 3.5 mph - N/A   Overcast
3:36 PM 55.4 °F - 37.4 °F 51% 29.94 in 10.0 mi Calm Calm - N/A   Overcast
3:56 PM 53.6 °F - 37.4 °F 54% 29.93 in 10.0 mi Calm Calm - N/A   Overcast
4:16 PM 53.6 °F - 39.2 °F 58% 29.93 in 10.0 mi WNW 11.5 mph - N/A   Overcast
4:36 PM 51.8 °F - 39.2 °F 62% 29.93 in 10.0 mi WNW 10.4 mph - N/A   Overcast
4:56 PM 50.0 °F - 39.2 °F 66% 29.93 in 10.0 mi WNW 10.4 mph - N/A   Overcast
5:16 PM 50.0 °F - 41.0 °F 71% 29.93 in 10.0 mi WNW 6.9 mph - N/A   Overcast
5:36 PM 50.0 °F - 41.0 °F 71% 29.93 in 10.0 mi WNW 9.2 mph - N/A   Overcast
5:56 PM 50.0 °F - 41.0 °F 71% 29.92 in 10.0 mi WNW 6.9 mph - N/A   Overcast
6:16 PM 50.0 °F - 41.0 °F 71% 29.91 in 10.0 mi NW 4.6 mph - N/A   Overcast
6:36 PM 50.0 °F - 41.0 °F 71% 29.90 in 10.0 mi NW 5.8 mph - N/A   Overcast
6:56 PM 50.0 °F - 42.8 °F 76% 29.89 in 10.0 mi NW 5.8 mph - N/A   Overcast
7:16 PM 50.0 °F - 42.8 °F 76% 29.89 in 10.0 mi North 5.8 mph - N/A   Overcast
7:36 PM 48.2 °F - 42.8 °F 82% 29.88 in 10.0 mi NNW 4.6 mph - N/A   Overcast
7:56 PM 48.2 °F - 42.8 °F 82% 29.87 in 10.0 mi North 3.5 mph - N/A   Overcast
8:16 PM 48.2 °F - 42.8 °F 82% 29.86 in 10.0 mi North 3.5 mph - N/A   Overcast
8:36 PM 48.2 °F - 41.0 °F 76% 29.86 in 10.0 mi North 3.5 mph - N/A   Overcast
8:56 PM 48.2 °F - 42.8 °F 82% 29.85 in 10.0 mi Calm Calm - N/A   Overcast
9:16 PM 48.2 °F - 42.8 °F 82% 29.85 in 10.0 mi Calm Calm - N/A   Overcast
9:36 PM 48.2 °F - 42.8 °F 82% 29.84 in 10.0 mi Calm Calm - N/A   Overcast
9:56 PM 48.2 °F - 42.8 °F 82% 29.84 in 10.0 mi Calm Calm - N/A   Overcast
10:16 PM 48.2 °F - 42.8 °F 82% 29.83 in 10.0 mi Calm Calm - N/A   Overcast
10:36 PM 48.2 °F - 42.8 °F 82% 29.83 in 10.0 mi Calm Calm - N/A   Overcast
10:56 PM 48.2 °F - 42.8 °F 82% 29.83 in 10.0 mi Calm Calm - N/A   Overcast
11:16 PM 48.2 °F - 42.8 °F 82% 29.82 in 10.0 mi Calm Calm - 0.01 in   Overcast
11:36 PM 46.4 °F - 44.6 °F 93% 29.81 in 10.0 mi Calm Calm - 0.01 in   Overcast
11:56 PM 46.4 °F - 42.8 °F 87% 29.81 in 10.0 mi Calm Calm - 0.01 in   Overcast